Погода в Большой Шильне

Россия / Республика Татарстан     55°47′13″N   52°29′31″E
темп.,
°C
ветер,
м/с
пор.,
м/с
влажн.,
%
обл.,
%
осадки,
мм/ч
давл.,
гПа
погр.,
м
21 апреля, ср
ср2100:00+2юв37535 0.0 1030112
03:00+1юв3956100 0.0 1031163
06:00+3юв41251100 0.0 1030408
09:00+7ююв71135100 0.0 1030847
12:00+10ююв81128100 0.0 10281169
15:00+10ююв61136100 0.1 10271177
18:00+8ю51043100 0.0 1027580
21:00+7ю61351100 0.1 1026950
22 апреля, чт
чт2200:00+4ююв71689100 2.3 1026913
03:00+3ююв71496100 6.3 1026676
06:00+3ю61396100 2.8 1026715
09:00+4ю51196100 3.1 1027654
12:00+5ю5990100 0.0 1028677
15:00+5ююв598794 0.0 1028632
18:00+5ю5985100 0.0 1028554
21:00+4ююв4892100 0.0 1028472
23 апреля, пт
пт2300:00+3ююв3696100 0.0 1028423
03:00+3ююв2495100 0.0 1027248
06:00+4ююв2492100 0.0 1028221
09:00+6ю2381100 0.0 1028499
12:00+10ююв236762 0.0 1027824
15:00+12вюв436147 0.0 10261077
18:00+9вюв357347 0.0 1026208
21:00+6в3887100 0.0 1025207
24 апреля, сб
сб2400:00+5всв489188 0.0 1023245
03:00+5всв4889100 0.0 1022289
06:00+5всв3693100 0.2 1020231
09:00+6всв3696100 1.4 1018237
12:00+6в3696100 0.8 1017341
15:00+7вюв3592100 1.4 1016641
18:00+6в2395100 0.6 1015148
21:00+6св2697100 2.2 1013360
25 апреля, вс
вс2500:00+6юв1298100 0.3 1012112
03:00+5ююз2496100 0.4 1011115
06:00+6ююв488585 0.0 1010331
09:00+6ю5993100 3.0 1009477
12:00+10зюз812557 0.3 10111690
15:00+11зюз7104656 0.3 10122261
18:00+9юз486098 0.1 1013314
21:00+6ююз39772 0.1 1015181